Погода в Болони

Россия / Хабаровский край     49°53′54″N   136°08′11″E
темп.,
°C
ветер,
м/с
пор.,
м/с
влажн.,
%
обл.,
%
осадки,
мм/ч
давл.,
гПа
погр.,
м
20 апреля, вт
вт2001:00+3юв1280100 0.0 99591
04:00+1в3799100 3.4 994225
07:000в3798100 8.1 995441
10:000ссв3592100 11.5 997587
13:00+3з1468100 1.0 1000942
16:00+5сз145978 1.1 10031377
19:00+3юз238255 0.0 1006101
22:00−2ссз21935 0.0 100815
21 апреля, ср
ср2101:00−3сз21915 0.0 101116
04:00−3сз11925 0.0 101312
07:00−1зсз11814 0.0 101630
10:00+5ююз23661 0.0 1018441
13:00+8ююз12550 0.0 1018819
16:00+10ююз12551 0.0 1018703
19:00+7в117931 0.0 102011
22:00+2ссз11890 0.0 102212
22 апреля, чт
чт2201:00+1сз11930 0.0 102312
04:000с11920 0.0 102311
07:00+2ссз11850 0.0 102422
10:00+9юз12600 0.0 1023376
13:00+13юз25490 0.0 1022669
16:00+16юз36420 0.0 1020900
19:00+13юз12575 0.0 102014
22:00+9зсз11655 0.0 102012
23 апреля, пт
пт2301:00+8сз116939 0.0 102011
04:00+7зсз117191 0.0 102011
07:00+7ююз117199 0.0 102011
10:00+13ююз2355100 0.0 1019250
13:00+17юз3546100 0.0 1018719
16:00+18юз154792 0.0 1016382
19:00+15св3463100 0.0 1016195
22:00+8св5988100 6.4 1018634
24 апреля, сб
сб2401:00+3с41187100 6.9 1020821
04:00+2с31181100 9.5 1021828
07:00+1ссз2566100 0.0 1021387
10:00+5ссв244349 0.0 10201292
13:00+7юз1343100 0.1 10182036
16:00+3ююз0185100 1.8 1017434
19:00+2ююв3490100 1.6 1017289
22:00+2юз2389100 2.3 1017112